Olympia, WA

2:52 AM PST on November 18, 2017 (GMT -0800)
Olympia

Weather History for KOLM - August, 2014

Change the Weather History Date:

Monday, August 25, 2014

  Actual Average Record
Temperature  
Mean Temperature 67 °F 63 °F  
Max Temperature 86 °F 77 °F 92 °F (2016)
Min Temperature 48 °F 50 °F 38 °F (1973)
Degree Days  
Heating Degree Days 0 3  
Month to date heating degree days 14 51  
Since 1 June heating degree days 202 319  
Since 1 July heating degree days 47 131  
Cooling Degree Days 2 1  
Month to date cooling degree days 71 41  
Year to date cooling degree days 169 98  
Since 1 June cooling degree days 168 95  
Growing Degree Days 17 (Base 50)    
Moisture  
Dew Point 52 °F    
Average Humidity 64    
Maximum Humidity 100    
Minimum Humidity 27    
Precipitation  
Precipitation 0.00 in 0.04 in 1.01 in (1977)
Month to date precipitation 0.85 0.66  
Year to date precipitation 31.81 27.32  
Sea Level Pressure  
Sea Level Pressure 30.00 in    
Wind  
Wind Speed 3 mph (NNE)    
Max Wind Speed 10 mph    
Max Gust Speed 16 mph    
Visibility 6 miles    
Events Fog    
T = Trace of Precipitation, MM = Missing Value Source: NWS Daily Summary

Daily Weather History Graph

Daily Weather History Graph

Search for Another Location

Airport or City:

Trip Planner

Search our weather history database for the weather conditions in past years. The results will help you decide how hot, cold, wet, or windy it might be!

Date:

Astronomy

Aug. 25, 2014 Rise Set
Actual Time 6:22 AM PDT 8:04 PM PDT
Civil Twilight 5:49 AM PDT 8:36 PM PDT
Nautical Twilight 5:10 AM PDT 9:15 PM PDT
Astronomical Twilight 4:27 AM PDT 9:58 PM PDT
Moon 6:36 AM PDT (8/25) 7:51 PM PDT (8/25)
Length of Visible Light 14h 46m
Length of Day
13h 42m
New Moon, 0% of the Moon is Illuminated
Aug 25
New Moon
Sep 2
First Quarter
Sep 8
Full
Sep 15
Last Quarter
Sep 23
New

Hourly Weather History & Observations

Time (PDT) Temp. Heat Index Dew Point Humidity Pressure Visibility Wind Dir Wind Speed Gust Speed Precip Events Conditions
12:54 AM 55.9 °F - 54.0 °F 93% 29.99 in 10.0 mi Calm Calm - N/A   Clear
1:54 AM 55.4 °F - 53.6 °F 94% 29.99 in 8.0 mi Calm Calm - N/A   Clear
2:54 AM 53.1 °F - 52.0 °F 96% 29.99 in 7.0 mi Calm Calm - N/A   Clear
3:32 AM 53.1 °F - 52.0 °F 96% 30.00 in 2.5 mi Calm Calm - N/A   Clear
3:39 AM 53.1 °F - 51.1 °F 93% 30.00 in 9.0 mi Calm Calm - N/A   Clear
3:54 AM 52.0 °F - 51.1 °F 97% 30.00 in 5.0 mi South 3.5 mph - N/A   Partly Cloudy
4:12 AM 50.0 °F - 48.9 °F 96% 30.00 in 6.0 mi Calm Calm - N/A   Mostly Cloudy
4:28 AM 51.1 °F - 51.1 °F 100% 30.00 in 1.5 mi Calm Calm - N/A   Overcast
4:30 AM 51.1 °F - 50.0 °F 96% 30.00 in 0.8 mi Calm Calm - N/A   Mist
4:43 AM 51.1 °F - 50.0 °F 96% 30.00 in 1.5 mi Calm Calm - N/A   Overcast
4:50 AM 51.8 °F - 50.0 °F 94% 30.01 in 0.8 mi Calm Calm - N/A   Mist
4:54 AM 51.1 °F - 50.0 °F 96% 30.01 in 0.8 mi Calm Calm - N/A   Mist
5:00 AM 52.0 °F - 51.1 °F 97% 30.01 in 1.5 mi Calm Calm - N/A   Scattered Clouds
5:02 AM 52.0 °F - 51.1 °F 97% 30.01 in 4.0 mi Calm Calm - N/A   Scattered Clouds
5:32 AM 51.1 °F - 50.0 °F 96% 30.01 in 1.5 mi Calm Calm - N/A   Scattered Clouds
5:35 AM 51.1 °F - 50.0 °F 96% 30.01 in 0.8 mi Calm Calm - N/A   Mist
5:45 AM 51.1 °F - 50.0 °F 96% 30.01 in 0.2 mi Calm Calm - N/A Fog Fog
5:51 AM 51.8 °F - 50.0 °F 94% 30.01 in 1.0 mi Calm Calm - N/A   Overcast
5:54 AM 50.0 °F - 50.0 °F 100% 30.01 in 3.0 mi Calm Calm - N/A   Overcast
6:54 AM 50.0 °F - 50.0 °F 100% 30.03 in 6.0 mi Calm Calm - N/A   Overcast
7:20 AM 52.0 °F - 52.0 °F 100% 30.03 in 0.8 mi Calm Calm - N/A   Overcast
7:44 AM 52.0 °F - 52.0 °F 100% 30.03 in 0.2 mi Calm Calm - N/A Fog Fog
7:54 AM 53.1 °F - 52.0 °F 96% 30.04 in 3.0 mi Calm Calm - N/A   Partly Cloudy
8:54 AM 60.1 °F - 55.0 °F 83% 30.04 in 10.0 mi Calm Calm - N/A   Clear
9:54 AM 66.9 °F - 55.9 °F 68% 30.03 in 9.0 mi Calm Calm - N/A   Clear
9:57 AM 66.9 °F - 55.9 °F 68% 30.03 in 10.0 mi NNE 3.5 mph - N/A   Clear
10:54 AM 72.0 °F - 55.9 °F 57% 30.03 in 10.0 mi Variable 3.5 mph - N/A   Clear
11:54 AM 75.0 °F - 57.0 °F 53% 30.02 in 10.0 mi Calm Calm - N/A   Clear
12:54 PM 79.0 °F - 55.0 °F 44% 30.01 in 10.0 mi North 9.2 mph - N/A   Clear
1:54 PM 82.0 °F 81.2 °F 53.1 °F 37% 30.00 in 10.0 mi North 8.1 mph - N/A   Clear
2:54 PM 82.0 °F - 51.1 °F 34% 29.99 in 10.0 mi Variable 4.6 mph - N/A   Clear
3:54 PM 84.9 °F - 46.9 °F 27% 29.97 in 10.0 mi North 6.9 mph - N/A   Clear
4:54 PM 84.9 °F - 50.0 °F 30% 29.96 in 10.0 mi North 6.9 mph - N/A   Clear
5:54 PM 84.9 °F - 46.9 °F 27% 29.96 in 10.0 mi NE 6.9 mph - N/A   Clear
6:54 PM 84.0 °F - 52.0 °F 33% 29.95 in 10.0 mi NE 6.9 mph - N/A   Clear
7:54 PM 78.8 °F - 53.6 °F 42% 29.96 in 10.0 mi Calm Calm - N/A   Clear
8:54 PM 73.0 °F - 55.0 °F 53% 29.97 in 10.0 mi Calm Calm - N/A   Clear
9:54 PM 69.1 °F - 55.0 °F 61% 29.98 in 10.0 mi Calm Calm - N/A   Clear
10:54 PM 64.9 °F - 55.9 °F 73% 29.99 in 10.0 mi South 3.5 mph - N/A   Clear
11:54 PM 62.1 °F - 55.0 °F 78% 30.00 in 10.0 mi Calm Calm - N/A   Clear